<?xml version="1.0" encoding="UTF-8" standalone="no" ?>
<gpx xmlns="http://www.topografix.com/GPX/1/1" xmlns:xsi="http://www.w3.org/2001/XMLSchema-instance" xsi:schemaLocation="http://www.topografix.com/GPX/1/1 http://www.topografix.com/GPX/1/1/gpx.xsd" version="1.1" creator="VisuGPX - https://www.visugpx.com">
  <metadata>
    <name>RANDO VALSONNE_23km</name>
    <desc><![CDATA[Randonnée pédestre du sous des écoles de Valsonne le 16 Janvier 2022]]></desc>
  </metadata>
  <wpt lat="45.95762" lon="4.38739">
    <ele>767</ele>
    <name><![CDATA[relai 1]]></name>
    <type><![CDATA[restaurant]]></type>
  </wpt>
  <wpt lat="45.98487" lon="4.43892">
    <ele>727.7</ele>
    <name><![CDATA[relai 2]]></name>
    <type><![CDATA[restaurant]]></type>
  </wpt>
  <wpt lat="45.97287" lon="4.45226">
    <ele>791.8</ele>
    <name><![CDATA[relai 3]]></name>
    <type><![CDATA[restaurant]]></type>
  </wpt>
  <trk>
    <name><![CDATA[23.2KM 791D  on edp-parcours.com]]></name>
    <extensions>
      <line xmlns="http://www.topografix.com/GPX/gpx_style/0/2">
        <color>0000ff</color>
        <opacity>1</opacity>
        <width>7</width>
      </line>
    </extensions>
    <trkseg>
      <trkpt lat="45.94647" lon="4.43091">
        <ele>479.3</ele>
        <time>2021-12-16T22:10:30Z</time>
      </trkpt>
      <trkpt lat="45.94645" lon="4.43091">
        <ele>479</ele>
        <time>2021-12-16T22:10:37Z</time>
      </trkpt>
      <trkpt lat="45.94603" lon="4.43261">
        <ele>488.4</ele>
        <time>2021-12-16T22:10:40Z</time>
      </trkpt>
      <trkpt lat="45.94597" lon="4.43266">
        <ele>487.8</ele>
        <time>2021-12-16T22:10:59Z</time>
      </trkpt>
      <trkpt lat="45.94581" lon="4.43306">
        <ele>487.5</ele>
        <time>2021-12-16T22:11:12Z</time>
      </trkpt>
      <trkpt lat="45.94579" lon="4.43308">
        <ele>487.1</ele>
        <time>2021-12-16T22:11:17Z</time>
      </trkpt>
      <trkpt lat="45.94577" lon="4.43302">
        <ele>486.1</ele>
        <time>2021-12-16T22:11:33Z</time>
      </trkpt>
      <trkpt lat="45.9458" lon="4.43286">
        <ele>485.6</ele>
        <time>2021-12-16T22:11:50Z</time>
      </trkpt>
      <trkpt lat="45.9458" lon="4.43279">
        <ele>485</ele>
        <time>2021-12-16T22:11:54Z</time>
      </trkpt>
      <trkpt lat="45.94573" lon="4.43259">
        <ele>481.1</ele>
        <time>2021-12-16T22:12:13Z</time>
      </trkpt>
      <trkpt lat="45.94572" lon="4.43258">
        <ele>480.9</ele>
        <time>2021-12-16T22:12:30Z</time>
      </trkpt>
      <trkpt lat="45.94541" lon="4.43333">
        <ele>477.8</ele>
        <time>2021-12-16T22:12:47Z</time>
      </trkpt>
      <trkpt lat="45.94527" lon="4.43386">
        <ele>473</ele>
        <time>2021-12-16T22:13:06Z</time>
      </trkpt>
      <trkpt lat="45.94529" lon="4.43398">
        <ele>471.5</ele>
        <time>2021-12-16T22:13:13Z</time>
      </trkpt>
      <trkpt lat="45.94555" lon="4.43462">
        <ele>467.9</ele>
        <time>2021-12-16T22:13:31Z</time>
      </trkpt>
      <trkpt lat="45.94563" lon="4.43503">
        <ele>463</ele>
        <time>2021-12-16T22:13:46Z</time>
      </trkpt>
      <trkpt lat="45.94569" lon="4.43514">
        <ele>463.1</ele>
        <time>2021-12-16T22:13:51Z</time>
      </trkpt>
      <trkpt lat="45.94579" lon="4.43534">
        <ele>462.8</ele>
        <time>2021-12-16T22:14:08Z</time>
      </trkpt>
      <trkpt lat="45.94597" lon="4.43556">
        <ele>462.5</ele>
        <time>2021-12-16T22:14:19Z</time>
      </trkpt>
      <trkpt lat="45.94617" lon="4.43576">
        <ele>463.6</ele>
        <time>2021-12-16T22:14:27Z</time>
      </trkpt>
      <trkpt lat="45.94643" lon="4.43623">
        <ele>464</ele>
        <time>2021-12-16T22:14:45Z</time>
      </trkpt>
      <trkpt lat="45.94662" lon="4.43638">
        <ele>465.7</ele>
        <time>2021-12-16T22:14:50Z</time>
      </trkpt>
      <trkpt lat="45.94683" lon="4.43664">
        <ele>467.7</ele>
        <time>2021-12-16T22:14:54Z</time>
      </trkpt>
      <trkpt lat="45.94687" lon="4.43672">
        <ele>467.9</ele>
        <time>2021-12-16T22:15:02Z</time>
      </trkpt>
      <trkpt lat="45.94687" lon="4.43675">
        <ele>468.1</ele>
        <time>2021-12-16T22:15:05Z</time>
      </trkpt>
      <trkpt lat="45.94684" lon="4.4368">
        <ele>468.3</ele>
        <time>2021-12-16T22:15:07Z</time>
      </trkpt>
      <trkpt lat="45.9465" lon="4.43681">
        <ele>471.1</ele>
        <time>2021-12-16T22:15:11Z</time>
      </trkpt>
      <trkpt lat="45.94627" lon="4.43684">
        <ele>475.5</ele>
        <time>2021-12-16T22:15:18Z</time>
      </trkpt>
      <trkpt lat="45.94591" lon="4.43684">
        <ele>482</ele>
        <time>2021-12-16T22:15:21Z</time>
      </trkpt>
      <trkpt lat="45.9452" lon="4.43668">
        <ele>488.1</ele>
        <time>2021-12-16T22:15:37Z</time>
      </trkpt>
      <trkpt lat="45.94521" lon="4.43658">
        <ele>486.2</ele>
        <time>2021-12-16T22:15:42Z</time>
      </trkpt>
      <trkpt lat="45.94509" lon="4.43607">
        <ele>477.3</ele>
        <time>2021-12-16T22:15:51Z</time>
      </trkpt>
      <trkpt lat="45.94489" lon="4.43572">
        <ele>471.7</ele>
        <time>2021-12-16T22:16:02Z</time>
      </trkpt>
      <trkpt lat="45.94446" lon="4.43512">
        <ele>460.8</ele>
        <time>2021-12-16T22:16:10Z</time>
      </trkpt>
      <trkpt lat="45.94415" lon="4.4346">
        <ele>451.5</ele>
        <time>2021-12-16T22:16:23Z</time>
      </trkpt>
      <trkpt lat="45.94389" lon="4.43434">
        <ele>447.1</ele>
        <time>2021-12-16T22:16:32Z</time>
      </trkpt>
      <trkpt lat="45.94372" lon="4.4342">
        <ele>444.1</ele>
        <time>2021-12-16T22:16:40Z</time>
      </trkpt>
      <trkpt lat="45.94361" lon="4.43411">
        <ele>442.5</ele>
        <time>2021-12-16T22:16:48Z</time>
      </trkpt>
      <trkpt lat="45.94347" lon="4.43422">
        <ele>442.6</ele>
        <time>2021-12-16T22:16:54Z</time>
      </trkpt>
      <trkpt lat="45.94343" lon="4.43408">
        <ele>439.8</ele>
        <time>2021-12-16T22:17:06Z</time>
      </trkpt>
      <trkpt lat="45.94347" lon="4.43392">
        <ele>438.3</ele>
        <time>2021-12-16T22:17:12Z</time>
      </trkpt>
      <trkpt lat="45.94364" lon="4.43326">
        <ele>437.7</ele>
        <time>2021-12-16T22:17:15Z</time>
      </trkpt>
      <trkpt lat="45.94373" lon="4.433">
        <ele>437</ele>
        <time>2021-12-16T22:17:29Z</time>
      </trkpt>
      <trkpt lat="45.94386" lon="4.43288">
        <ele>438</ele>
        <time>2021-12-16T22:17:43Z</time>
      </trkpt>
      <trkpt lat="45.94435" lon="4.43224">
        <ele>443.1</ele>
        <time>2021-12-16T22:17:45Z</time>
      </trkpt>
      <trkpt lat="45.9444" lon="4.43217">
        <ele>443.9</ele>
        <time>2021-12-16T22:17:58Z</time>
      </trkpt>
      <trkpt lat="45.94438" lon="4.43212">
        <ele>443.2</ele>
        <time>2021-12-16T22:18:10Z</time>
      </trkpt>
      <trkpt lat="45.94439" lon="4.43195">
        <ele>442.9</ele>
        <time>2021-12-16T22:18:18Z</time>
      </trkpt>
      <trkpt lat="45.94447" lon="4.43165">
        <ele>442.3</ele>
        <time>2021-12-16T22:18:26Z</time>
      </trkpt>
      <trkpt lat="45.94455" lon="4.43144">
        <ele>441.7</ele>
        <time>2021-12-16T22:18:29Z</time>
      </trkpt>
      <trkpt lat="45.94475" lon="4.43114">
        <ele>442.2</ele>
        <time>2021-12-16T22:18:40Z</time>
      </trkpt>
      <trkpt lat="45.94505" lon="4.4306">
        <ele>442.8</ele>
        <time>2021-12-16T22:18:56Z</time>
      </trkpt>
      <trkpt lat="45.94538" lon="4.43009">
        <ele>443.2</ele>
        <time>2021-12-16T22:19:11Z</time>
      </trkpt>
      <trkpt lat="45.94579" lon="4.42932">
        <ele>444.5</ele>
        <time>2021-12-16T22:19:23Z</time>
      </trkpt>
      <trkpt lat="45.9464" lon="4.42856">
        <ele>444.9</ele>
        <time>2021-12-16T22:19:41Z</time>
      </trkpt>
      <trkpt lat="45.94644" lon="4.42844">
        <ele>444.8</ele>
        <time>2021-12-16T22:19:43Z</time>
      </trkpt>
      <trkpt lat="45.94652" lon="4.42838">
        <ele>445.1</ele>
        <time>2021-12-16T22:19:55Z</time>
      </trkpt>
      <trkpt lat="45.94663" lon="4.42841">
        <ele>446</ele>
        <time>2021-12-16T22:20:14Z</time>
      </trkpt>
      <trkpt lat="45.94668" lon="4.42842">
        <ele>446.5</ele>
        <time>2021-12-16T22:20:33Z</time>
      </trkpt>
      <trkpt lat="45.94674" lon="4.42851">
        <ele>447.6</ele>
        <time>2021-12-16T22:20:45Z</time>
      </trkpt>
      <trkpt lat="45.94717" lon="4.42799">
        <ele>448.6</ele>
        <time>2021-12-16T22:21:04Z</time>
      </trkpt>
      <trkpt lat="45.94759" lon="4.42763">
        <ele>450.2</ele>
        <time>2021-12-16T22:21:16Z</time>
      </trkpt>
      <trkpt lat="45.94785" lon="4.42737">
        <ele>451.5</ele>
        <time>2021-12-16T22:21:26Z</time>
      </trkpt>
      <trkpt lat="45.94822" lon="4.42688">
        <ele>453.1</ele>
        <time>2021-12-16T22:21:42Z</time>
      </trkpt>
      <trkpt lat="45.94853" lon="4.42658">
        <ele>455.6</ele>
        <time>2021-12-16T22:21:46Z</time>
      </trkpt>
      <trkpt lat="45.94862" lon="4.42653">
        <ele>456.3</ele>
        <time>2021-12-16T22:21:52Z</time>
      </trkpt>
      <trkpt lat="45.94888" lon="4.42584">
        <ele>453.9</ele>
        <time>2021-12-16T22:22:01Z</time>
      </trkpt>
      <trkpt lat="45.94889" lon="4.42575">
        <ele>453.3</ele>
        <time>2021-12-16T22:22:21Z</time>
      </trkpt>
      <trkpt lat="45.9489" lon="4.42573">
        <ele>453.4</ele>
        <time>2021-12-16T22:22:24Z</time>
      </trkpt>
      <trkpt lat="45.94889" lon="4.42575">
        <ele>453.3</ele>
        <time>2021-12-16T22:22:39Z</time>
      </trkpt>
      <trkpt lat="45.94877" lon="4.42549">
        <ele>451.9</ele>
        <time>2021-12-16T22:22:58Z</time>
      </trkpt>
      <trkpt lat="45.94864" lon="4.42536">
        <ele>453</ele>
        <time>2021-12-16T22:23:00Z</time>
      </trkpt>
      <trkpt lat="45.94854" lon="4.42534">
        <ele>454.8</ele>
        <time>2021-12-16T22:23:09Z</time>
      </trkpt>
      <trkpt lat="45.94862" lon="4.42482">
        <ele>457.8</ele>
        <time>2021-12-16T22:23:12Z</time>
      </trkpt>
      <trkpt lat="45.94872" lon="4.42459">
        <ele>459</ele>
        <time>2021-12-16T22:23:25Z</time>
      </trkpt>
      <trkpt lat="45.94887" lon="4.42431">
        <ele>458.4</ele>
        <time>2021-12-16T22:23:41Z</time>
      </trkpt>
      <trkpt lat="45.94902" lon="4.424">
        <ele>459.2</ele>
        <time>2021-12-16T22:23:46Z</time>
      </trkpt>
      <trkpt lat="45.94907" lon="4.42383">
        <ele>459.4</ele>
        <time>2021-12-16T22:24:04Z</time>
      </trkpt>
      <trkpt lat="45.94909" lon="4.42368">
        <ele>459.8</ele>
        <time>2021-12-16T22:24:23Z</time>
      </trkpt>
      <trkpt lat="45.94909" lon="4.42351">
        <ele>460.8</ele>
        <time>2021-12-16T22:24:27Z</time>
      </trkpt>
      <trkpt lat="45.94902" lon="4.42272">
        <ele>463.9</ele>
        <time>2021-12-16T22:24:33Z</time>
      </trkpt>
      <trkpt lat="45.94898" lon="4.42247">
        <ele>465.6</ele>
        <time>2021-12-16T22:24:44Z</time>
      </trkpt>
      <trkpt lat="45.94889" lon="4.42219">
        <ele>468</ele>
        <time>2021-12-16T22:24:58Z</time>
      </trkpt>
      <trkpt lat="45.94883" lon="4.4219">
        <ele>470.8</ele>
        <time>2021-12-16T22:25:09Z</time>
      </trkpt>
      <trkpt lat="45.94878" lon="4.42157">
        <ele>471.1</ele>
        <time>2021-12-16T22:25:24Z</time>
      </trkpt>
      <trkpt lat="45.94872" lon="4.42135">
        <ele>471.5</ele>
        <time>2021-12-16T22:25:26Z</time>
      </trkpt>
      <trkpt lat="45.94847" lon="4.42099">
        <ele>474.5</ele>
        <time>2021-12-16T22:25:44Z</time>
      </trkpt>
      <trkpt lat="45.94841" lon="4.42087">
        <ele>475.1</ele>
        <time>2021-12-16T22:25:50Z</time>
      </trkpt>
      <trkpt lat="45.94834" lon="4.42066">
        <ele>476.9</ele>
        <time>2021-12-16T22:26:03Z</time>
      </trkpt>
      <trkpt lat="45.94829" lon="4.4204">
        <ele>481.4</ele>
        <time>2021-12-16T22:26:16Z</time>
      </trkpt>
      <trkpt lat="45.94833" lon="4.42041">
        <ele>481.8</ele>
        <time>2021-12-16T22:26:31Z</time>
      </trkpt>
      <trkpt lat="45.94838" lon="4.42044">
        <ele>482</ele>
        <time>2021-12-16T22:26:45Z</time>
      </trkpt>
      <trkpt lat="45.9486" lon="4.42062">
        <ele>480.9</ele>
        <time>2021-12-16T22:27:05Z</time>
      </trkpt>
      <trkpt lat="45.9487" lon="4.42066">
        <ele>481.1</ele>
        <time>2021-12-16T22:27:21Z</time>
      </trkpt>
      <trkpt lat="45.94884" lon="4.42064">
        <ele>483.2</ele>
        <time>2021-12-16T22:27:34Z</time>
      </trkpt>
      <trkpt lat="45.94898" lon="4.42053">
        <ele>485</ele>
        <time>2021-12-16T22:27:43Z</time>
      </trkpt>
      <trkpt lat="45.94925" lon="4.42013">
        <ele>487.6</ele>
        <time>2021-12-16T22:27:58Z</time>
      </trkpt>
      <trkpt lat="45.94936" lon="4.42002">
        <ele>488.6</ele>
        <time>2021-12-16T22:28:04Z</time>
      </trkpt>
      <trkpt lat="45.94947" lon="4.41996">
        <ele>489.1</ele>
        <time>2021-12-16T22:28:09Z</time>
      </trkpt>
      <trkpt lat="45.94968" lon="4.41992">
        <ele>488.7</ele>
        <time>2021-12-16T22:28:15Z</time>
      </trkpt>
      <trkpt lat="45.94975" lon="4.41987">
        <ele>488.9</ele>
        <time>2021-12-16T22:28:33Z</time>
      </trkpt>
      <trkpt lat="45.95" lon="4.41976">
        <ele>485.5</ele>
        <time>2021-12-16T22:28:53Z</time>
      </trkpt>
      <trkpt lat="45.95014" lon="4.41964">
        <ele>483.6</ele>
        <time>2021-12-16T22:28:57Z</time>
      </trkpt>
      <trkpt lat="45.9503" lon="4.41944">
        <ele>481.1</ele>
        <time>2021-12-16T22:29:10Z</time>
      </trkpt>
      <trkpt lat="45.95047" lon="4.41917">
        <ele>477.6</ele>
        <time>2021-12-16T22:29:21Z</time>
      </trkpt>
      <trkpt lat="45.95056" lon="4.41911">
        <ele>475.6</ele>
        <time>2021-12-16T22:29:31Z</time>
      </trkpt>
      <trkpt lat="45.95068" lon="4.41909">
        <ele>475.5</ele>
        <time>2021-12-16T22:29:38Z</time>
      </trkpt>
      <trkpt lat="45.95075" lon="4.41914">
        <ele>475.1</ele>
        <time>2021-12-16T22:29:40Z</time>
      </trkpt>
      <trkpt lat="45.95078" lon="4.4192">
        <ele>474.9</ele>
        <time>2021-12-16T22:29:53Z</time>
      </trkpt>
      <trkpt lat="45.95108" lon="4.41994">
        <ele>478.3</ele>
        <time>2021-12-16T22:30:03Z</time>
      </trkpt>
      <trkpt lat="45.95109" lon="4.41997">
        <ele>478.5</ele>
        <time>2021-12-16T22:30:05Z</time>
      </trkpt>
      <trkpt lat="45.95131" lon="4.41882">
        <ele>486.5</ele>
        <time>2021-12-16T22:30:17Z</time>
      </trkpt>
      <trkpt lat="45.95137" lon="4.41757">
        <ele>494.4</ele>
        <time>2021-12-16T22:30:32Z</time>
      </trkpt>
      <trkpt lat="45.95141" lon="4.41729">
        <ele>496.5</ele>
        <time>2021-12-16T22:30:36Z</time>
      </trkpt>
      <trkpt lat="45.95141" lon="4.41671">
        <ele>499.9</ele>
        <time>2021-12-16T22:30:45Z</time>
      </trkpt>
      <trkpt lat="45.95148" lon="4.41623">
        <ele>503.1</ele>
        <time>2021-12-16T22:30:56Z</time>
      </trkpt>
      <trkpt lat="45.95156" lon="4.41502">
        <ele>509.7</ele>
        <time>2021-12-16T22:31:15Z</time>
      </trkpt>
      <trkpt lat="45.95152" lon="4.4132">
        <ele>517.4</ele>
        <time>2021-12-16T22:31:32Z</time>
      </trkpt>
      <trkpt lat="45.95158" lon="4.41227">
        <ele>521.7</ele>
        <time>2021-12-16T22:31:42Z</time>
      </trkpt>
      <trkpt lat="45.95157" lon="4.41192">
        <ele>523.9</ele>
        <time>2021-12-16T22:31:44Z</time>
      </trkpt>
      <trkpt lat="45.95163" lon="4.41188">
        <ele>527.3</ele>
        <time>2021-12-16T22:32:04Z</time>
      </trkpt>
      <trkpt lat="45.95173" lon="4.41189">
        <ele>530</ele>
        <time>2021-12-16T22:32:24Z</time>
      </trkpt>
      <trkpt lat="45.95179" lon="4.41192">
        <ele>530.8</ele>
        <time>2021-12-16T22:32:44Z</time>
      </trkpt>
      <trkpt lat="45.95184" lon="4.41199">
        <ele>531.4</ele>
        <time>2021-12-16T22:32:50Z</time>
      </trkpt>
      <trkpt lat="45.95188" lon="4.4121">
        <ele>532.9</ele>
        <time>2021-12-16T22:33:09Z</time>
      </trkpt>
      <trkpt lat="45.95189" lon="4.41233">
        <ele>534.7</ele>
        <time>2021-12-16T22:33:16Z</time>
      </trkpt>
      <trkpt lat="45.95198" lon="4.41299">
        <ele>539.5</ele>
        <time>2021-12-16T22:33:34Z</time>
      </trkpt>
      <trkpt lat="45.95221" lon="4.41371">
        <ele>545.6</ele>
        <time>2021-12-16T22:33:42Z</time>
      </trkpt>
      <trkpt lat="45.95238" lon="4.41443">
        <ele>546.7</ele>
        <time>2021-12-16T22:33:57Z</time>
      </trkpt>
      <trkpt lat="45.95245" lon="4.41459">
        <ele>548.3</ele>
        <time>2021-12-16T22:34:01Z</time>
      </trkpt>
      <trkpt lat="45.95248" lon="4.41461">
        <ele>549.2</ele>
        <time>2021-12-16T22:34:16Z</time>
      </trkpt>
      <trkpt lat="45.95255" lon="4.41465">
        <ele>551.4</ele>
        <time>2021-12-16T22:34:25Z</time>
      </trkpt>
      <trkpt lat="45.95278" lon="4.4152">
        <ele>556.6</ele>
        <time>2021-12-16T22:34:31Z</time>
      </trkpt>
      <trkpt lat="45.95285" lon="4.41543">
        <ele>559.2</ele>
        <time>2021-12-16T22:34:33Z</time>
      </trkpt>
      <trkpt lat="45.95286" lon="4.41558">
        <ele>559.9</ele>
        <time>2021-12-16T22:34:46Z</time>
      </trkpt>
      <trkpt lat="45.95287" lon="4.41638">
        <ele>557.8</ele>
        <time>2021-12-16T22:35:06Z</time>
      </trkpt>
      <trkpt lat="45.9529" lon="4.41652">
        <ele>558.4</ele>
        <time>2021-12-16T22:35:08Z</time>
      </trkpt>
      <trkpt lat="45.95295" lon="4.41669">
        <ele>560.3</ele>
        <time>2021-12-16T22:35:24Z</time>
      </trkpt>
      <trkpt lat="45.95319" lon="4.41707">
        <ele>564.9</ele>
        <time>2021-12-16T22:35:27Z</time>
      </trkpt>
      <trkpt lat="45.95333" lon="4.41718">
        <ele>567.4</ele>
        <time>2021-12-16T22:35:39Z</time>
      </trkpt>
      <trkpt lat="45.95363" lon="4.41739">
        <ele>568.7</ele>
        <time>2021-12-16T22:35:58Z</time>
      </trkpt>
      <trkpt lat="45.95361" lon="4.41523">
        <ele>595.1</ele>
        <time>2021-12-16T22:36:07Z</time>
      </trkpt>
      <trkpt lat="45.95366" lon="4.41481">
        <ele>598.9</ele>
        <time>2021-12-16T22:36:25Z</time>
      </trkpt>
      <trkpt lat="45.95389" lon="4.41402">
        <ele>611.2</ele>
        <time>2021-12-16T22:36:35Z</time>
      </trkpt>
      <trkpt lat="45.95442" lon="4.41263">
        <ele>628</ele>
        <time>2021-12-16T22:36:49Z</time>
      </trkpt>
      <trkpt lat="45.95542" lon="4.41027">
        <ele>656.2</ele>
        <time>2021-12-16T22:37:08Z</time>
      </trkpt>
      <trkpt lat="45.95662" lon="4.4086">
        <ele>660.3</ele>
        <time>2021-12-16T22:37:26Z</time>
      </trkpt>
      <trkpt lat="45.95714" lon="4.40851">
        <ele>663.6</ele>
        <time>2021-12-16T22:37:34Z</time>
      </trkpt>
      <trkpt lat="45.95856" lon="4.40931">
        <ele>661.6</ele>
        <time>2021-12-16T22:37:54Z</time>
      </trkpt>
      <trkpt lat="45.959" lon="4.40959">
        <ele>661.4</ele>
        <time>2021-12-16T22:38:10Z</time>
      </trkpt>
      <trkpt lat="45.95931" lon="4.40937">
        <ele>667.3</ele>
        <time>2021-12-16T22:38:14Z</time>
      </trkpt>
      <trkpt lat="45.95926" lon="4.4086">
        <ele>679.4</ele>
        <time>2021-12-16T22:38:19Z</time>
      </trkpt>
      <trkpt lat="45.9575" lon="4.40551">
        <ele>705.9</ele>
        <time>2021-12-16T22:38:32Z</time>
      </trkpt>
      <trkpt lat="45.95743" lon="4.40455">
        <ele>712.2</ele>
        <time>2021-12-16T22:38:35Z</time>
      </trkpt>
      <trkpt lat="45.95762" lon="4.40392">
        <ele>714.3</ele>
        <time>2021-12-16T22:38:44Z</time>
      </trkpt>
      <trkpt lat="45.95812" lon="4.40332">
        <ele>723.3</ele>
        <time>2021-12-16T22:38:52Z</time>
      </trkpt>
      <trkpt lat="45.95916" lon="4.40281">
        <ele>738.2</ele>
        <time>2021-12-16T22:39:02Z</time>
      </trkpt>
      <trkpt lat="45.95996" lon="4.40222">
        <ele>741.9</ele>
        <time>2021-12-16T22:39:04Z</time>
      </trkpt>
      <trkpt lat="45.96037" lon="4.40031">
        <ele>748.3</ele>
        <time>2021-12-16T22:39:09Z</time>
      </trkpt>
      <trkpt lat="45.95983" lon="4.39825">
        <ele>766.4</ele>
        <time>2021-12-16T22:39:18Z</time>
      </trkpt>
      <trkpt lat="45.95989" lon="4.39737">
        <ele>763.2</ele>
        <time>2021-12-16T22:39:32Z</time>
      </trkpt>
      <trkpt lat="45.95786" lon="4.3944">
        <ele>755.2</ele>
        <time>2021-12-16T22:39:52Z</time>
      </trkpt>
      <trkpt lat="45.95786" lon="4.3943">
        <ele>755.3</ele>
        <time>2021-12-16T22:40:11Z</time>
      </trkpt>
      <trkpt lat="45.95766" lon="4.39428">
        <ele>757.6</ele>
        <time>2021-12-16T22:40:18Z</time>
      </trkpt>
      <trkpt lat="45.95757" lon="4.39422">
        <ele>758.8</ele>
        <time>2021-12-16T22:40:21Z</time>
      </trkpt>
      <trkpt lat="45.95752" lon="4.39414">
        <ele>759.8</ele>
        <time>2021-12-16T22:40:24Z</time>
      </trkpt>
      <trkpt lat="45.95745" lon="4.39383">
        <ele>760.1</ele>
        <time>2021-12-16T22:40:32Z</time>
      </trkpt>
      <trkpt lat="45.95729" lon="4.3937">
        <ele>761.5</ele>
        <time>2021-12-16T22:40:46Z</time>
      </trkpt>
      <trkpt lat="45.95719" lon="4.39367">
        <ele>762.6</ele>
        <time>2021-12-16T22:41:00Z</time>
      </trkpt>
      <trkpt lat="45.95714" lon="4.39352">
        <ele>765.2</ele>
        <time>2021-12-16T22:41:10Z</time>
      </trkpt>
      <trkpt lat="45.95703" lon="4.39342">
        <ele>768.6</ele>
        <time>2021-12-16T22:41:24Z</time>
      </trkpt>
      <trkpt lat="45.95698" lon="4.39337">
        <ele>770.6</ele>
        <time>2021-12-16T22:41:32Z</time>
      </trkpt>
      <trkpt lat="45.95669" lon="4.39298">
        <ele>785</ele>
        <time>2021-12-16T22:41:39Z</time>
      </trkpt>
      <trkpt lat="45.95647" lon="4.39287">
        <ele>790.2</ele>
        <time>2021-12-16T22:41:57Z</time>
      </trkpt>
      <trkpt lat="45.95626" lon="4.39272">
        <ele>792.5</ele>
        <time>2021-12-16T22:42:06Z</time>
      </trkpt>
      <trkpt lat="45.95605" lon="4.39247">
        <ele>794</ele>
        <time>2021-12-16T22:42:14Z</time>
      </trkpt>
      <trkpt lat="45.95574" lon="4.39233">
        <ele>795</ele>
        <time>2021-12-16T22:42:20Z</time>
      </trkpt>
      <trkpt lat="45.9551" lon="4.39188">
        <ele>798.4</ele>
        <time>2021-12-16T22:42:36Z</time>
      </trkpt>
      <trkpt lat="45.95472" lon="4.39164">
        <ele>799.2</ele>
        <time>2021-12-16T22:42:43Z</time>
      </trkpt>
      <trkpt lat="45.95455" lon="4.39133">
        <ele>800.8</ele>
        <time>2021-12-16T22:42:47Z</time>
      </trkpt>
      <trkpt lat="45.95426" lon="4.39095">
        <ele>800.9</ele>
        <time>2021-12-16T22:42:52Z</time>
      </trkpt>
      <trkpt lat="45.954" lon="4.3907">
        <ele>798.9</ele>
        <time>2021-12-16T22:43:10Z</time>
      </trkpt>
      <trkpt lat="45.95381" lon="4.39054">
        <ele>797.2</ele>
        <time>2021-12-16T22:43:16Z</time>
      </trkpt>
      <trkpt lat="45.95341" lon="4.39024">
        <ele>795.4</ele>
        <time>2021-12-16T22:43:26Z</time>
      </trkpt>
      <trkpt lat="45.95318" lon="4.39">
        <ele>795.5</ele>
        <time>2021-12-16T22:43:46Z</time>
      </trkpt>
      <trkpt lat="45.953" lon="4.38994">
        <ele>795</ele>
        <time>2021-12-16T22:43:56Z</time>
      </trkpt>
      <trkpt lat="45.95295" lon="4.38993">
        <ele>794.9</ele>
        <time>2021-12-16T22:44:04Z</time>
      </trkpt>
      <trkpt lat="45.95322" lon="4.38986">
        <ele>795.8</ele>
        <time>2021-12-16T22:44:23Z</time>
      </trkpt>
      <trkpt lat="45.95339" lon="4.38977">
        <ele>796.2</ele>
        <time>2021-12-16T22:44:40Z</time>
      </trkpt>
      <trkpt lat="45.95387" lon="4.38946">
        <ele>796.1</ele>
        <time>2021-12-16T22:44:50Z</time>
      </trkpt>
      <trkpt lat="45.95417" lon="4.38932">
        <ele>794.1</ele>
        <time>2021-12-16T22:44:59Z</time>
      </trkpt>
      <trkpt lat="45.95427" lon="4.38929">
        <ele>793.2</ele>
        <time>2021-12-16T22:45:05Z</time>
      </trkpt>
      <trkpt lat="45.95448" lon="4.38929">
        <ele>791.4</ele>
        <time>2021-12-16T22:45:11Z</time>
      </trkpt>
      <trkpt lat="45.95479" lon="4.38935">
        <ele>788.2</ele>
        <time>2021-12-16T22:45:28Z</time>
      </trkpt>
      <trkpt lat="45.95515" lon="4.38939">
        <ele>785.3</ele>
        <time>2021-12-16T22:45:46Z</time>
      </trkpt>
      <trkpt lat="45.95539" lon="4.38937">
        <ele>783.4</ele>
        <time>2021-12-16T22:45:49Z</time>
      </trkpt>
      <trkpt lat="45.95562" lon="4.38926">
        <ele>780.8</ele>
        <time>2021-12-16T22:46:04Z</time>
      </trkpt>
      <trkpt lat="45.95618" lon="4.38887">
        <ele>773.4</ele>
        <time>2021-12-16T22:46:08Z</time>
      </trkpt>
      <trkpt lat="45.95646" lon="4.38863">
        <ele>769.6</ele>
        <time>2021-12-16T22:46:16Z</time>
      </trkpt>
      <trkpt lat="45.9568" lon="4.38828">
        <ele>767.3</ele>
        <time>2021-12-16T22:46:35Z</time>
      </trkpt>
      <trkpt lat="45.95743" lon="4.38795">
        <ele>766.9</ele>
        <time>2021-12-16T22:46:44Z</time>
      </trkpt>
      <trkpt lat="45.9576" lon="4.3878">
        <ele>766.6</ele>
        <time>2021-12-16T22:47:03Z</time>
      </trkpt>
      <trkpt lat="45.9577" lon="4.38766">
        <ele>766.6</ele>
        <time>2021-12-16T22:47:15Z</time>
      </trkpt>
      <trkpt lat="45.95771" lon="4.3878">
        <ele>766.2</ele>
        <time>2021-12-16T22:47:26Z</time>
      </trkpt>
      <trkpt lat="45.9577" lon="4.38766">
        <ele>766.6</ele>
        <time>2021-12-16T22:47:31Z</time>
      </trkpt>
      <trkpt lat="45.95781" lon="4.38755">
        <ele>766.7</ele>
        <time>2021-12-16T22:47:41Z</time>
      </trkpt>
      <trkpt lat="45.95801" lon="4.38733">
        <ele>766.7</ele>
        <time>2021-12-16T22:47:51Z</time>
      </trkpt>
      <trkpt lat="45.95832" lon="4.38703">
        <ele>767.4</ele>
        <time>2021-12-16T22:48:07Z</time>
      </trkpt>
      <trkpt lat="45.95915" lon="4.38642">
        <ele>767.5</ele>
        <time>2021-12-16T22:48:27Z</time>
      </trkpt>
      <trkpt lat="45.95968" lon="4.38629">
        <ele>769.1</ele>
        <time>2021-12-16T22:48:30Z</time>
      </trkpt>
      <trkpt lat="45.96034" lon="4.38622">
        <ele>770.8</ele>
        <time>2021-12-16T22:48:50Z</time>
      </trkpt>
      <trkpt lat="45.96044" lon="4.38624">
        <ele>770.8</ele>
        <time>2021-12-16T22:49:07Z</time>
      </trkpt>
      <trkpt lat="45.96092" lon="4.38644">
        <ele>770.8</ele>
        <time>2021-12-16T22:49:16Z</time>
      </trkpt>
      <trkpt lat="45.96116" lon="4.38658">
        <ele>770.3</ele>
        <time>2021-12-16T22:49:34Z</time>
      </trkpt>
      <trkpt lat="45.96141" lon="4.38673">
        <ele>770.4</ele>
        <time>2021-12-16T22:49:53Z</time>
      </trkpt>
      <trkpt lat="45.96162" lon="4.38681">
        <ele>770.8</ele>
        <time>2021-12-16T22:50:06Z</time>
      </trkpt>
      <trkpt lat="45.96201" lon="4.3869">
        <ele>771.4</ele>
        <time>2021-12-16T22:50:16Z</time>
      </trkpt>
      <trkpt lat="45.96214" lon="4.38695">
        <ele>771.7</ele>
        <time>2021-12-16T22:50:27Z</time>
      </trkpt>
      <trkpt lat="45.96273" lon="4.38734">
        <ele>773.3</ele>
        <time>2021-12-16T22:50:31Z</time>
      </trkpt>
      <trkpt lat="45.96302" lon="4.38746">
        <ele>774.9</ele>
        <time>2021-12-16T22:50:49Z</time>
      </trkpt>
      <trkpt lat="45.96327" lon="4.38749">
        <ele>775.8</ele>
        <time>2021-12-16T22:50:51Z</time>
      </trkpt>
      <trkpt lat="45.9634" lon="4.38748">
        <ele>776</ele>
        <time>2021-12-16T22:50:57Z</time>
      </trkpt>
      <trkpt lat="45.964" lon="4.38736">
        <ele>774.6</ele>
        <time>2021-12-16T22:51:01Z</time>
      </trkpt>
      <trkpt lat="45.96433" lon="4.38737">
        <ele>773.4</ele>
        <time>2021-12-16T22:51:05Z</time>
      </trkpt>
      <trkpt lat="45.96454" lon="4.38742">
        <ele>772.6</ele>
        <time>2021-12-16T22:51:15Z</time>
      </trkpt>
      <trkpt lat="45.96465" lon="4.38747">
        <ele>772.2</ele>
        <time>2021-12-16T22:51:19Z</time>
      </trkpt>
      <trkpt lat="45.96505" lon="4.38772">
        <ele>767.7</ele>
        <time>2021-12-16T22:51:36Z</time>
      </trkpt>
      <trkpt lat="45.96523" lon="4.38786">
        <ele>766.3</ele>
        <time>2021-12-16T22:51:56Z</time>
      </trkpt>
      <trkpt lat="45.96531" lon="4.38797">
        <ele>765.7</ele>
        <time>2021-12-16T22:51:59Z</time>
      </trkpt>
      <trkpt lat="45.96576" lon="4.38885">
        <ele>761.2</ele>
        <time>2021-12-16T22:52:13Z</time>
      </trkpt>
      <trkpt lat="45.96602" lon="4.38929">
        <ele>759.5</ele>
        <time>2021-12-16T22:52:24Z</time>
      </trkpt>
      <trkpt lat="45.96612" lon="4.38953">
        <ele>759</ele>
        <time>2021-12-16T22:52:43Z</time>
      </trkpt>
      <trkpt lat="45.96617" lon="4.38965">
        <ele>758.9</ele>
        <time>2021-12-16T22:52:59Z</time>
      </trkpt>
      <trkpt lat="45.96628" lon="4.39005">
        <ele>759.1</ele>
        <time>2021-12-16T22:53:06Z</time>
      </trkpt>
      <trkpt lat="45.96641" lon="4.39038">
        <ele>760.1</ele>
        <time>2021-12-16T22:53:10Z</time>
      </trkpt>
      <trkpt lat="45.96658" lon="4.39073">
        <ele>762.4</ele>
        <time>2021-12-16T22:53:30Z</time>
      </trkpt>
      <trkpt lat="45.96662" lon="4.39085">
        <ele>763.5</ele>
        <time>2021-12-16T22:53:37Z</time>
      </trkpt>
      <trkpt lat="45.96674" lon="4.39139">
        <ele>765.3</ele>
        <time>2021-12-16T22:53:47Z</time>
      </trkpt>
      <trkpt lat="45.96694" lon="4.39213">
        <ele>766</ele>
        <time>2021-12-16T22:54:06Z</time>
      </trkpt>
      <trkpt lat="45.96722" lon="4.39282">
        <ele>766.1</ele>
        <time>2021-12-16T22:54:11Z</time>
      </trkpt>
      <trkpt lat="45.96759" lon="4.39363">
        <ele>767.5</ele>
        <time>2021-12-16T22:54:21Z</time>
      </trkpt>
      <trkpt lat="45.96771" lon="4.39385">
        <ele>766.6</ele>
        <time>2021-12-16T22:54:24Z</time>
      </trkpt>
      <trkpt lat="45.96788" lon="4.39404">
        <ele>765.1</ele>
        <time>2021-12-16T22:54:34Z</time>
      </trkpt>
      <trkpt lat="45.968" lon="4.39416">
        <ele>764.5</ele>
        <time>2021-12-16T22:54:42Z</time>
      </trkpt>
      <trkpt lat="45.96823" lon="4.39438">
        <ele>763.5</ele>
        <time>2021-12-16T22:54:45Z</time>
      </trkpt>
      <trkpt lat="45.96836" lon="4.39454">
        <ele>763.3</ele>
        <time>2021-12-16T22:55:05Z</time>
      </trkpt>
      <trkpt lat="45.96856" lon="4.39474">
        <ele>762.7</ele>
        <time>2021-12-16T22:55:14Z</time>
      </trkpt>
      <trkpt lat="45.96867" lon="4.39482">
        <ele>762</ele>
        <time>2021-12-16T22:55:24Z</time>
      </trkpt>
      <trkpt lat="45.96925" lon="4.395">
        <ele>759.7</ele>
        <time>2021-12-16T22:55:41Z</time>
      </trkpt>
      <trkpt lat="45.96951" lon="4.3951">
        <ele>759.2</ele>
        <time>2021-12-16T22:55:55Z</time>
      </trkpt>
      <trkpt lat="45.96962" lon="4.39517">
        <ele>758.5</ele>
        <time>2021-12-16T22:55:58Z</time>
      </trkpt>
      <trkpt lat="45.96977" lon="4.3953">
        <ele>757.1</ele>
        <time>2021-12-16T22:56:10Z</time>
      </trkpt>
      <trkpt lat="45.96995" lon="4.3955">
        <ele>753.9</ele>
        <time>2021-12-16T22:56:22Z</time>
      </trkpt>
      <trkpt lat="45.97007" lon="4.39559">
        <ele>751.9</ele>
        <time>2021-12-16T22:56:39Z</time>
      </trkpt>
      <trkpt lat="45.97039" lon="4.39579">
        <ele>746.8</ele>
        <time>2021-12-16T22:56:52Z</time>
      </trkpt>
      <trkpt lat="45.97105" lon="4.39625">
        <ele>738.6</ele>
        <time>2021-12-16T22:57:05Z</time>
      </trkpt>
      <trkpt lat="45.97115" lon="4.39628">
        <ele>737.5</ele>
        <time>2021-12-16T22:57:23Z</time>
      </trkpt>
      <trkpt lat="45.97177" lon="4.39628">
        <ele>732.6</ele>
        <time>2021-12-16T22:57:30Z</time>
      </trkpt>
      <trkpt lat="45.97211" lon="4.3961">
        <ele>731.4</ele>
        <time>2021-12-16T22:57:46Z</time>
      </trkpt>
      <trkpt lat="45.9722" lon="4.39606">
        <ele>730.9</ele>
        <time>2021-12-16T22:58:02Z</time>
      </trkpt>
      <trkpt lat="45.97231" lon="4.39605">
        <ele>730.2</ele>
        <time>2021-12-16T22:58:18Z</time>
      </trkpt>
      <trkpt lat="45.97266" lon="4.39612">
        <ele>727.9</ele>
        <time>2021-12-16T22:58:33Z</time>
      </trkpt>
      <trkpt lat="45.97278" lon="4.3962">
        <ele>727</ele>
        <time>2021-12-16T22:58:43Z</time>
      </trkpt>
      <trkpt lat="45.97274" lon="4.3961">
        <ele>727.3</ele>
        <time>2021-12-16T22:59:00Z</time>
      </trkpt>
      <trkpt lat="45.97278" lon="4.3962">
        <ele>727</ele>
        <time>2021-12-16T22:59:10Z</time>
      </trkpt>
      <trkpt lat="45.97306" lon="4.39641">
        <ele>726</ele>
        <time>2021-12-16T22:59:27Z</time>
      </trkpt>
      <trkpt lat="45.9733" lon="4.39663">
        <ele>726.2</ele>
        <time>2021-12-16T22:59:46Z</time>
      </trkpt>
      <trkpt lat="45.97411" lon="4.39718">
        <ele>729.6</ele>
        <time>2021-12-16T23:00:00Z</time>
      </trkpt>
      <trkpt lat="45.97451" lon="4.39756">
        <ele>731.4</ele>
        <time>2021-12-16T23:00:13Z</time>
      </trkpt>
      <trkpt lat="45.97484" lon="4.39799">
        <ele>733.6</ele>
        <time>2021-12-16T23:00:33Z</time>
      </trkpt>
      <trkpt lat="45.97509" lon="4.39809">
        <ele>736.4</ele>
        <time>2021-12-16T23:00:37Z</time>
      </trkpt>
      <trkpt lat="45.9754" lon="4.39819">
        <ele>738.7</ele>
        <time>2021-12-16T23:00:49Z</time>
      </trkpt>
      <trkpt lat="45.97549" lon="4.39826">
        <ele>739.3</ele>
        <time>2021-12-16T23:01:07Z</time>
      </trkpt>
      <trkpt lat="45.97558" lon="4.39837">
        <ele>740</ele>
        <time>2021-12-16T23:01:14Z</time>
      </trkpt>
      <trkpt lat="45.9757" lon="4.39859">
        <ele>740.5</ele>
        <time>2021-12-16T23:01:27Z</time>
      </trkpt>
      <trkpt lat="45.97582" lon="4.39869">
        <ele>740.6</ele>
        <time>2021-12-16T23:01:37Z</time>
      </trkpt>
      <trkpt lat="45.97639" lon="4.39901">
        <ele>742</ele>
        <time>2021-12-16T23:01:55Z</time>
      </trkpt>
      <trkpt lat="45.97654" lon="4.39916">
        <ele>742</ele>
        <time>2021-12-16T23:02:10Z</time>
      </trkpt>
      <trkpt lat="45.97726" lon="4.39974">
        <ele>741.6</ele>
        <time>2021-12-16T23:02:23Z</time>
      </trkpt>
      <trkpt lat="45.9776" lon="4.39995">
        <ele>739.6</ele>
        <time>2021-12-16T23:02:29Z</time>
      </trkpt>
      <trkpt lat="45.97777" lon="4.40004">
        <ele>738.2</ele>
        <time>2021-12-16T23:02:31Z</time>
      </trkpt>
      <trkpt lat="45.97861" lon="4.40035">
        <ele>732.6</ele>
        <time>2021-12-16T23:02:44Z</time>
      </trkpt>
      <trkpt lat="45.97868" lon="4.4004">
        <ele>732.5</ele>
        <time>2021-12-16T23:03:00Z</time>
      </trkpt>
      <trkpt lat="45.97871" lon="4.40042">
        <ele>732.5</ele>
        <time>2021-12-16T23:03:14Z</time>
      </trkpt>
      <trkpt lat="45.9787" lon="4.40086">
        <ele>734.8</ele>
        <time>2021-12-16T23:03:23Z</time>
      </trkpt>
      <trkpt lat="45.97861" lon="4.40123">
        <ele>736.4</ele>
        <time>2021-12-16T23:03:33Z</time>
      </trkpt>
      <trkpt lat="45.97822" lon="4.40209">
        <ele>739.9</ele>
        <time>2021-12-16T23:03:38Z</time>
      </trkpt>
      <trkpt lat="45.97814" lon="4.40221">
        <ele>740.5</ele>
        <time>2021-12-16T23:03:48Z</time>
      </trkpt>
      <trkpt lat="45.97791" lon="4.40258">
        <ele>743.4</ele>
        <time>2021-12-16T23:03:56Z</time>
      </trkpt>
      <trkpt lat="45.97751" lon="4.40332">
        <ele>746.1</ele>
        <time>2021-12-16T23:04:11Z</time>
      </trkpt>
      <trkpt lat="45.97733" lon="4.40362">
        <ele>747.2</ele>
        <time>2021-12-16T23:04:19Z</time>
      </trkpt>
      <trkpt lat="45.977" lon="4.40407">
        <ele>748</ele>
        <time>2021-12-16T23:04:27Z</time>
      </trkpt>
      <trkpt lat="45.97686" lon="4.40432">
        <ele>749</ele>
        <time>2021-12-16T23:04:30Z</time>
      </trkpt>
      <trkpt lat="45.97671" lon="4.40452">
        <ele>749.6</ele>
        <time>2021-12-16T23:04:45Z</time>
      </trkpt>
      <trkpt lat="45.97658" lon="4.40483">
        <ele>751.6</ele>
        <time>2021-12-16T23:04:56Z</time>
      </trkpt>
      <trkpt lat="45.97586" lon="4.40615">
        <ele>759.6</ele>
        <time>2021-12-16T23:05:15Z</time>
      </trkpt>
      <trkpt lat="45.97578" lon="4.40634">
        <ele>761</ele>
        <time>2021-12-16T23:05:19Z</time>
      </trkpt>
      <trkpt lat="45.97572" lon="4.40664">
        <ele>762.9</ele>
        <time>2021-12-16T23:05:25Z</time>
      </trkpt>
      <trkpt lat="45.97568" lon="4.40697">
        <ele>763.8</ele>
        <time>2021-12-16T23:05:27Z</time>
      </trkpt>
      <trkpt lat="45.97567" lon="4.40727">
        <ele>764.6</ele>
        <time>2021-12-16T23:05:29Z</time>
      </trkpt>
      <trkpt lat="45.9757" lon="4.40791">
        <ele>764.6</ele>
        <time>2021-12-16T23:05:45Z</time>
      </trkpt>
      <trkpt lat="45.97584" lon="4.40861">
        <ele>764.1</ele>
        <time>2021-12-16T23:06:04Z</time>
      </trkpt>
      <trkpt lat="45.97583" lon="4.40853">
        <ele>764.4</ele>
        <time>2021-12-16T23:06:13Z</time>
      </trkpt>
      <trkpt lat="45.97594" lon="4.40874">
        <ele>767.9</ele>
        <time>2021-12-16T23:06:30Z</time>
      </trkpt>
      <trkpt lat="45.97607" lon="4.40908">
        <ele>772.7</ele>
        <time>2021-12-16T23:06:35Z</time>
      </trkpt>
      <trkpt lat="45.97618" lon="4.40995">
        <ele>780.1</ele>
        <time>2021-12-16T23:06:44Z</time>
      </trkpt>
      <trkpt lat="45.97669" lon="4.41133">
        <ele>793.3</ele>
        <time>2021-12-16T23:06:52Z</time>
      </trkpt>
      <trkpt lat="45.97707" lon="4.41223">
        <ele>797.7</ele>
        <time>2021-12-16T23:06:55Z</time>
      </trkpt>
      <trkpt lat="45.97728" lon="4.41257">
        <ele>798</ele>
        <time>2021-12-16T23:07:07Z</time>
      </trkpt>
      <trkpt lat="45.9776" lon="4.41299">
        <ele>797</ele>
        <time>2021-12-16T23:07:09Z</time>
      </trkpt>
      <trkpt lat="45.978" lon="4.41338">
        <ele>797.1</ele>
        <time>2021-12-16T23:07:20Z</time>
      </trkpt>
      <trkpt lat="45.97832" lon="4.41359">
        <ele>796.3</ele>
        <time>2021-12-16T23:07:36Z</time>
      </trkpt>
      <trkpt lat="45.97908" lon="4.41389">
        <ele>796</ele>
        <time>2021-12-16T23:07:42Z</time>
      </trkpt>
      <trkpt lat="45.97943" lon="4.41406">
        <ele>796.4</ele>
        <time>2021-12-16T23:07:57Z</time>
      </trkpt>
      <trkpt lat="45.9797" lon="4.41429">
        <ele>797.3</ele>
        <time>2021-12-16T23:08:16Z</time>
      </trkpt>
      <trkpt lat="45.97994" lon="4.41462">
        <ele>798.7</ele>
        <time>2021-12-16T23:08:21Z</time>
      </trkpt>
      <trkpt lat="45.98012" lon="4.41512">
        <ele>799.9</ele>
        <time>2021-12-16T23:08:37Z</time>
      </trkpt>
      <trkpt lat="45.98027" lon="4.41564">
        <ele>801.6</ele>
        <time>2021-12-16T23:08:53Z</time>
      </trkpt>
      <trkpt lat="45.98036" lon="4.41614">
        <ele>802.6</ele>
        <time>2021-12-16T23:08:57Z</time>
      </trkpt>
      <trkpt lat="45.98037" lon="4.41656">
        <ele>802.3</ele>
        <time>2021-12-16T23:09:17Z</time>
      </trkpt>
      <trkpt lat="45.98036" lon="4.41682">
        <ele>800.6</ele>
        <time>2021-12-16T23:09:23Z</time>
      </trkpt>
      <trkpt lat="45.98037" lon="4.41719">
        <ele>798.7</ele>
        <time>2021-12-16T23:09:41Z</time>
      </trkpt>
      <trkpt lat="45.98041" lon="4.41754">
        <ele>798.1</ele>
        <time>2021-12-16T23:09:48Z</time>
      </trkpt>
      <trkpt lat="45.9805" lon="4.41826">
        <ele>793.1</ele>
        <time>2021-12-16T23:10:00Z</time>
      </trkpt>
      <trkpt lat="45.98058" lon="4.41844">
        <ele>791.5</ele>
        <time>2021-12-16T23:10:14Z</time>
      </trkpt>
      <trkpt lat="45.98122" lon="4.41895">
        <ele>785.6</ele>
        <time>2021-12-16T23:10:30Z</time>
      </trkpt>
      <trkpt lat="45.9813" lon="4.41907">
        <ele>784.7</ele>
        <time>2021-12-16T23:10:36Z</time>
      </trkpt>
      <trkpt lat="45.9815" lon="4.41991">
        <ele>783</ele>
        <time>2021-12-16T23:10:45Z</time>
      </trkpt>
      <trkpt lat="45.98169" lon="4.42057">
        <ele>784.3</ele>
        <time>2021-12-16T23:11:01Z</time>
      </trkpt>
      <trkpt lat="45.98201" lon="4.4211">
        <ele>786</ele>
        <time>2021-12-16T23:11:16Z</time>
      </trkpt>
      <trkpt lat="45.98233" lon="4.42154">
        <ele>784.9</ele>
        <time>2021-12-16T23:11:27Z</time>
      </trkpt>
      <trkpt lat="45.9825" lon="4.42164">
        <ele>785.3</ele>
        <time>2021-12-16T23:11:30Z</time>
      </trkpt>
      <trkpt lat="45.98333" lon="4.42213">
        <ele>788.3</ele>
        <time>2021-12-16T23:11:38Z</time>
      </trkpt>
      <trkpt lat="45.98482" lon="4.42326">
        <ele>795.9</ele>
        <time>2021-12-16T23:11:50Z</time>
      </trkpt>
      <trkpt lat="45.98495" lon="4.42328">
        <ele>797.3</ele>
        <time>2021-12-16T23:11:52Z</time>
      </trkpt>
      <trkpt lat="45.98528" lon="4.42332">
        <ele>800.2</ele>
        <time>2021-12-16T23:12:11Z</time>
      </trkpt>
      <trkpt lat="45.986" lon="4.42308">
        <ele>806.1</ele>
        <time>2021-12-16T23:12:18Z</time>
      </trkpt>
      <trkpt lat="45.98657" lon="4.42231">
        <ele>811.6</ele>
        <time>2021-12-16T23:12:37Z</time>
      </trkpt>
      <trkpt lat="45.98713" lon="4.42194">
        <ele>815.1</ele>
        <time>2021-12-16T23:12:48Z</time>
      </trkpt>
      <trkpt lat="45.98779" lon="4.42196">
        <ele>816.9</ele>
        <time>2021-12-16T23:13:08Z</time>
      </trkpt>
      <trkpt lat="45.98834" lon="4.42237">
        <ele>817.5</ele>
        <time>2021-12-16T23:13:22Z</time>
      </trkpt>
      <trkpt lat="45.98929" lon="4.42374">
        <ele>818.8</ele>
        <time>2021-12-16T23:13:42Z</time>
      </trkpt>
      <trkpt lat="45.99012" lon="4.42441">
        <ele>826.6</ele>
        <time>2021-12-16T23:13:54Z</time>
      </trkpt>
      <trkpt lat="45.99118" lon="4.42486">
        <ele>828.1</ele>
        <time>2021-12-16T23:14:05Z</time>
      </trkpt>
      <trkpt lat="45.99122" lon="4.42482">
        <ele>828.9</ele>
        <time>2021-12-16T23:14:12Z</time>
      </trkpt>
      <trkpt lat="45.99091" lon="4.42513">
        <ele>824.3</ele>
        <time>2021-12-16T23:14:28Z</time>
      </trkpt>
      <trkpt lat="45.99063" lon="4.42553">
        <ele>819.5</ele>
        <time>2021-12-16T23:14:31Z</time>
      </trkpt>
      <trkpt lat="45.9903" lon="4.42614">
        <ele>811.9</ele>
        <time>2021-12-16T23:14:51Z</time>
      </trkpt>
      <trkpt lat="45.9901" lon="4.42668">
        <ele>806.3</ele>
        <time>2021-12-16T23:15:05Z</time>
      </trkpt>
      <trkpt lat="45.99001" lon="4.42712">
        <ele>802.8</ele>
        <time>2021-12-16T23:15:08Z</time>
      </trkpt>
      <trkpt lat="45.9899" lon="4.42755">
        <ele>798.8</ele>
        <time>2021-12-16T23:15:26Z</time>
      </trkpt>
      <trkpt lat="45.98975" lon="4.42796">
        <ele>794.7</ele>
        <time>2021-12-16T23:15:35Z</time>
      </trkpt>
      <trkpt lat="45.98949" lon="4.42849">
        <ele>790.4</ele>
        <time>2021-12-16T23:15:44Z</time>
      </trkpt>
      <trkpt lat="45.98922" lon="4.42917">
        <ele>785</ele>
        <time>2021-12-16T23:15:55Z</time>
      </trkpt>
      <trkpt lat="45.9891" lon="4.42952">
        <ele>781</ele>
        <time>2021-12-16T23:16:11Z</time>
      </trkpt>
      <trkpt lat="45.98904" lon="4.42987">
        <ele>777.6</ele>
        <time>2021-12-16T23:16:25Z</time>
      </trkpt>
      <trkpt lat="45.98889" lon="4.43035">
        <ele>774.7</ele>
        <time>2021-12-16T23:16:30Z</time>
      </trkpt>
      <trkpt lat="45.98879" lon="4.43056">
        <ele>773.6</ele>
        <time>2021-12-16T23:16:45Z</time>
      </trkpt>
      <trkpt lat="45.98868" lon="4.43066">
        <ele>773.4</ele>
        <time>2021-12-16T23:17:01Z</time>
      </trkpt>
      <trkpt lat="45.98835" lon="4.43077">
        <ele>769.2</ele>
        <time>2021-12-16T23:17:09Z</time>
      </trkpt>
      <trkpt lat="45.98809" lon="4.4309">
        <ele>764.9</ele>
        <time>2021-12-16T23:17:28Z</time>
      </trkpt>
      <trkpt lat="45.98783" lon="4.431">
        <ele>759.8</ele>
        <time>2021-12-16T23:17:41Z</time>
      </trkpt>
      <trkpt lat="45.98741" lon="4.4311">
        <ele>751</ele>
        <time>2021-12-16T23:17:46Z</time>
      </trkpt>
      <trkpt lat="45.98709" lon="4.43148">
        <ele>748.1</ele>
        <time>2021-12-16T23:18:01Z</time>
      </trkpt>
      <trkpt lat="45.98692" lon="4.43162">
        <ele>746</ele>
        <time>2021-12-16T23:18:18Z</time>
      </trkpt>
      <trkpt lat="45.98673" lon="4.43191">
        <ele>745.2</ele>
        <time>2021-12-16T23:18:24Z</time>
      </trkpt>
      <trkpt lat="45.98659" lon="4.43217">
        <ele>745.6</ele>
        <time>2021-12-16T23:18:42Z</time>
      </trkpt>
      <trkpt lat="45.9859" lon="4.43334">
        <ele>748.5</ele>
        <time>2021-12-16T23:18:45Z</time>
      </trkpt>
      <trkpt lat="45.98585" lon="4.43345">
        <ele>748.7</ele>
        <time>2021-12-16T23:18:48Z</time>
      </trkpt>
      <trkpt lat="45.98562" lon="4.43433">
        <ele>748.1</ele>
        <time>2021-12-16T23:18:53Z</time>
      </trkpt>
      <trkpt lat="45.98542" lon="4.43533">
        <ele>746.4</ele>
        <time>2021-12-16T23:19:04Z</time>
      </trkpt>
      <trkpt lat="45.98536" lon="4.43569">
        <ele>743.6</ele>
        <time>2021-12-16T23:19:20Z</time>
      </trkpt>
      <trkpt lat="45.98533" lon="4.43638">
        <ele>739.1</ele>
        <time>2021-12-16T23:19:29Z</time>
      </trkpt>
      <trkpt lat="45.98514" lon="4.43745">
        <ele>732.5</ele>
        <time>2021-12-16T23:19:36Z</time>
      </trkpt>
      <trkpt lat="45.985" lon="4.43805">
        <ele>729</ele>
        <time>2021-12-16T23:19:53Z</time>
      </trkpt>
      <trkpt lat="45.98493" lon="4.43828">
        <ele>727.8</ele>
        <time>2021-12-16T23:19:56Z</time>
      </trkpt>
      <trkpt lat="45.98483" lon="4.43846">
        <ele>727.5</ele>
        <time>2021-12-16T23:20:00Z</time>
      </trkpt>
      <trkpt lat="45.98468" lon="4.43876">
        <ele>728.9</ele>
        <time>2021-12-16T23:20:12Z</time>
      </trkpt>
      <trkpt lat="45.98461" lon="4.43885">
        <ele>730</ele>
        <time>2021-12-16T23:20:17Z</time>
      </trkpt>
      <trkpt lat="45.98448" lon="4.43896">
        <ele>732.5</ele>
        <time>2021-12-16T23:20:31Z</time>
      </trkpt>
      <trkpt lat="45.98417" lon="4.4391">
        <ele>738.8</ele>
        <time>2021-12-16T23:20:42Z</time>
      </trkpt>
      <trkpt lat="45.984" lon="4.43915">
        <ele>741.5</ele>
        <time>2021-12-16T23:20:46Z</time>
      </trkpt>
      <trkpt lat="45.98365" lon="4.4392">
        <ele>746.2</ele>
        <time>2021-12-16T23:20:54Z</time>
      </trkpt>
      <trkpt lat="45.98339" lon="4.4392">
        <ele>749.9</ele>
        <time>2021-12-16T23:20:56Z</time>
      </trkpt>
      <trkpt lat="45.98324" lon="4.43933">
        <ele>754.5</ele>
        <time>2021-12-16T23:20:58Z</time>
      </trkpt>
      <trkpt lat="45.98291" lon="4.43946">
        <ele>761.8</ele>
        <time>2021-12-16T23:21:12Z</time>
      </trkpt>
      <trkpt lat="45.98236" lon="4.43999">
        <ele>773.3</ele>
        <time>2021-12-16T23:21:28Z</time>
      </trkpt>
      <trkpt lat="45.98229" lon="4.44011">
        <ele>774.8</ele>
        <time>2021-12-16T23:21:36Z</time>
      </trkpt>
      <trkpt lat="45.98224" lon="4.44025">
        <ele>776.7</ele>
        <time>2021-12-16T23:21:48Z</time>
      </trkpt>
      <trkpt lat="45.98223" lon="4.44037">
        <ele>778.4</ele>
        <time>2021-12-16T23:21:54Z</time>
      </trkpt>
      <trkpt lat="45.98226" lon="4.44044">
        <ele>779.5</ele>
        <time>2021-12-16T23:22:07Z</time>
      </trkpt>
      <trkpt lat="45.98252" lon="4.44066">
        <ele>783.4</ele>
        <time>2021-12-16T23:22:09Z</time>
      </trkpt>
      <trkpt lat="45.98257" lon="4.44077">
        <ele>785</ele>
        <time>2021-12-16T23:22:29Z</time>
      </trkpt>
      <trkpt lat="45.98262" lon="4.44092">
        <ele>787.3</ele>
        <time>2021-12-16T23:22:48Z</time>
      </trkpt>
      <trkpt lat="45.98267" lon="4.44197">
        <ele>797.4</ele>
        <time>2021-12-16T23:22:57Z</time>
      </trkpt>
      <trkpt lat="45.98263" lon="4.44266">
        <ele>800</ele>
        <time>2021-12-16T23:23:03Z</time>
      </trkpt>
      <trkpt lat="45.98255" lon="4.44328">
        <ele>801.3</ele>
        <time>2021-12-16T23:23:20Z</time>
      </trkpt>
      <trkpt lat="45.98257" lon="4.44378">
        <ele>802.4</ele>
        <time>2021-12-16T23:23:34Z</time>
      </trkpt>
      <trkpt lat="45.98259" lon="4.44397">
        <ele>803.2</ele>
        <time>2021-12-16T23:23:51Z</time>
      </trkpt>
      <trkpt lat="45.9826" lon="4.44418">
        <ele>804.1</ele>
        <time>2021-12-16T23:23:54Z</time>
      </trkpt>
      <trkpt lat="45.98258" lon="4.44434">
        <ele>804.5</ele>
        <time>2021-12-16T23:24:06Z</time>
      </trkpt>
      <trkpt lat="45.98249" lon="4.44479">
        <ele>805.2</ele>
        <time>2021-12-16T23:24:22Z</time>
      </trkpt>
      <trkpt lat="45.98236" lon="4.44511">
        <ele>805.4</ele>
        <time>2021-12-16T23:24:41Z</time>
      </trkpt>
      <trkpt lat="45.98214" lon="4.44549">
        <ele>805.7</ele>
        <time>2021-12-16T23:24:47Z</time>
      </trkpt>
      <trkpt lat="45.98195" lon="4.4457">
        <ele>806.5</ele>
        <time>2021-12-16T23:24:57Z</time>
      </trkpt>
      <trkpt lat="45.98166" lon="4.44585">
        <ele>809.3</ele>
        <time>2021-12-16T23:25:11Z</time>
      </trkpt>
      <trkpt lat="45.98138" lon="4.44589">
        <ele>812.9</ele>
        <time>2021-12-16T23:25:21Z</time>
      </trkpt>
      <trkpt lat="45.9811" lon="4.44599">
        <ele>817.4</ele>
        <time>2021-12-16T23:25:32Z</time>
      </trkpt>
      <trkpt lat="45.98069" lon="4.44605">
        <ele>821.9</ele>
        <time>2021-12-16T23:25:49Z</time>
      </trkpt>
      <trkpt lat="45.98027" lon="4.44608">
        <ele>824.4</ele>
        <time>2021-12-16T23:26:00Z</time>
      </trkpt>
      <trkpt lat="45.97973" lon="4.44627">
        <ele>828.8</ele>
        <time>2021-12-16T23:26:16Z</time>
      </trkpt>
      <trkpt lat="45.97936" lon="4.44645">
        <ele>831.8</ele>
        <time>2021-12-16T23:26:36Z</time>
      </trkpt>
      <trkpt lat="45.97918" lon="4.44657">
        <ele>832.9</ele>
        <time>2021-12-16T23:26:51Z</time>
      </trkpt>
      <trkpt lat="45.97888" lon="4.4467">
        <ele>834.4</ele>
        <time>2021-12-16T23:27:09Z</time>
      </trkpt>
      <trkpt lat="45.97858" lon="4.44689">
        <ele>835.9</ele>
        <time>2021-12-16T23:27:19Z</time>
      </trkpt>
      <trkpt lat="45.97843" lon="4.44696">
        <ele>836.7</ele>
        <time>2021-12-16T23:27:36Z</time>
      </trkpt>
      <trkpt lat="45.97818" lon="4.44696">
        <ele>837.5</ele>
        <time>2021-12-16T23:27:55Z</time>
      </trkpt>
      <trkpt lat="45.97803" lon="4.44699">
        <ele>838</ele>
        <time>2021-12-16T23:28:10Z</time>
      </trkpt>
      <trkpt lat="45.97745" lon="4.44723">
        <ele>843.2</ele>
        <time>2021-12-16T23:28:15Z</time>
      </trkpt>
      <trkpt lat="45.97702" lon="4.44745">
        <ele>851.5</ele>
        <time>2021-12-16T23:28:23Z</time>
      </trkpt>
      <trkpt lat="45.97643" lon="4.448">
        <ele>856.9</ele>
        <time>2021-12-16T23:28:41Z</time>
      </trkpt>
      <trkpt lat="45.97578" lon="4.44853">
        <ele>855.1</ele>
        <time>2021-12-16T23:28:59Z</time>
      </trkpt>
      <trkpt lat="45.9756" lon="4.4488">
        <ele>850.4</ele>
        <time>2021-12-16T23:29:14Z</time>
      </trkpt>
      <trkpt lat="45.97525" lon="4.4496">
        <ele>837.6</ele>
        <time>2021-12-16T23:29:22Z</time>
      </trkpt>
      <trkpt lat="45.97502" lon="4.44999">
        <ele>833.8</ele>
        <time>2021-12-16T23:29:40Z</time>
      </trkpt>
      <trkpt lat="45.97446" lon="4.45039">
        <ele>829</ele>
        <time>2021-12-16T23:29:50Z</time>
      </trkpt>
      <trkpt lat="45.97421" lon="4.4506">
        <ele>823.4</ele>
        <time>2021-12-16T23:29:57Z</time>
      </trkpt>
      <trkpt lat="45.97394" lon="4.45084">
        <ele>817.1</ele>
        <time>2021-12-16T23:30:11Z</time>
      </trkpt>
      <trkpt lat="45.97365" lon="4.45112">
        <ele>811.7</ele>
        <time>2021-12-16T23:30:14Z</time>
      </trkpt>
      <trkpt lat="45.97317" lon="4.45222">
        <ele>792.9</ele>
        <time>2021-12-16T23:30:31Z</time>
      </trkpt>
      <trkpt lat="45.97299" lon="4.45245">
        <ele>790.6</ele>
        <time>2021-12-16T23:30:36Z</time>
      </trkpt>
      <trkpt lat="45.97278" lon="4.45245">
        <ele>790.2</ele>
        <time>2021-12-16T23:30:48Z</time>
      </trkpt>
      <trkpt lat="45.97279" lon="4.4525">
        <ele>790</ele>
        <time>2021-12-16T23:30:54Z</time>
      </trkpt>
      <trkpt lat="45.97285" lon="4.45257">
        <ele>789.6</ele>
        <time>2021-12-16T23:30:59Z</time>
      </trkpt>
      <trkpt lat="45.97279" lon="4.4525">
        <ele>790</ele>
        <time>2021-12-16T23:31:16Z</time>
      </trkpt>
      <trkpt lat="45.97278" lon="4.45245">
        <ele>790.2</ele>
        <time>2021-12-16T23:31:25Z</time>
      </trkpt>
      <trkpt lat="45.97271" lon="4.45238">
        <ele>790</ele>
        <time>2021-12-16T23:31:36Z</time>
      </trkpt>
      <trkpt lat="45.9726" lon="4.45219">
        <ele>789</ele>
        <time>2021-12-16T23:31:49Z</time>
      </trkpt>
      <trkpt lat="45.9724" lon="4.45174">
        <ele>784.3</ele>
        <time>2021-12-16T23:31:54Z</time>
      </trkpt>
      <trkpt lat="45.97219" lon="4.4512">
        <ele>777.2</ele>
        <time>2021-12-16T23:32:12Z</time>
      </trkpt>
      <trkpt lat="45.9721" lon="4.45092">
        <ele>774.6</ele>
        <time>2021-12-16T23:32:22Z</time>
      </trkpt>
      <trkpt lat="45.97201" lon="4.45031">
        <ele>770.9</ele>
        <time>2021-12-16T23:32:29Z</time>
      </trkpt>
      <trkpt lat="45.97192" lon="4.45003">
        <ele>766.6</ele>
        <time>2021-12-16T23:32:47Z</time>
      </trkpt>
      <trkpt lat="45.9711" lon="4.44796">
        <ele>745.8</ele>
        <time>2021-12-16T23:32:57Z</time>
      </trkpt>
      <trkpt lat="45.97107" lon="4.44779">
        <ele>744.9</ele>
        <time>2021-12-16T23:33:01Z</time>
      </trkpt>
      <trkpt lat="45.97103" lon="4.44718">
        <ele>741.4</ele>
        <time>2021-12-16T23:33:04Z</time>
      </trkpt>
      <trkpt lat="45.97101" lon="4.4471">
        <ele>741.1</ele>
        <time>2021-12-16T23:33:07Z</time>
      </trkpt>
      <trkpt lat="45.97094" lon="4.44704">
        <ele>739.7</ele>
        <time>2021-12-16T23:33:25Z</time>
      </trkpt>
      <trkpt lat="45.97086" lon="4.44703">
        <ele>738.4</ele>
        <time>2021-12-16T23:33:30Z</time>
      </trkpt>
      <trkpt lat="45.97073" lon="4.44703">
        <ele>736.2</ele>
        <time>2021-12-16T23:33:35Z</time>
      </trkpt>
      <trkpt lat="45.97071" lon="4.44704">
        <ele>735.9</ele>
        <time>2021-12-16T23:33:40Z</time>
      </trkpt>
      <trkpt lat="45.97035" lon="4.44644">
        <ele>740.6</ele>
        <time>2021-12-16T23:33:46Z</time>
      </trkpt>
      <trkpt lat="45.97006" lon="4.44604">
        <ele>742.2</ele>
        <time>2021-12-16T23:34:03Z</time>
      </trkpt>
      <trkpt lat="45.96993" lon="4.44592">
        <ele>742.5</ele>
        <time>2021-12-16T23:34:12Z</time>
      </trkpt>
      <trkpt lat="45.96972" lon="4.44569">
        <ele>743.6</ele>
        <time>2021-12-16T23:34:22Z</time>
      </trkpt>
      <trkpt lat="45.96956" lon="4.4456">
        <ele>745</ele>
        <time>2021-12-16T23:34:38Z</time>
      </trkpt>
      <trkpt lat="45.9688" lon="4.44551">
        <ele>746.9</ele>
        <time>2021-12-16T23:34:45Z</time>
      </trkpt>
      <trkpt lat="45.96836" lon="4.44533">
        <ele>749.8</ele>
        <time>2021-12-16T23:34:53Z</time>
      </trkpt>
      <trkpt lat="45.96776" lon="4.44538">
        <ele>749.6</ele>
        <time>2021-12-16T23:34:59Z</time>
      </trkpt>
      <trkpt lat="45.96761" lon="4.44536">
        <ele>750</ele>
        <time>2021-12-16T23:35:18Z</time>
      </trkpt>
      <trkpt lat="45.96716" lon="4.44536">
        <ele>750.7</ele>
        <time>2021-12-16T23:35:33Z</time>
      </trkpt>
      <trkpt lat="45.96698" lon="4.44532">
        <ele>751.7</ele>
        <time>2021-12-16T23:35:40Z</time>
      </trkpt>
      <trkpt lat="45.96685" lon="4.44535">
        <ele>751.1</ele>
        <time>2021-12-16T23:35:59Z</time>
      </trkpt>
      <trkpt lat="45.96682" lon="4.44534">
        <ele>750.9</ele>
        <time>2021-12-16T23:36:03Z</time>
      </trkpt>
      <trkpt lat="45.9668" lon="4.44528">
        <ele>750.9</ele>
        <time>2021-12-16T23:36:05Z</time>
      </trkpt>
      <trkpt lat="45.96658" lon="4.44521">
        <ele>748.6</ele>
        <time>2021-12-16T23:36:15Z</time>
      </trkpt>
      <trkpt lat="45.96644" lon="4.44506">
        <ele>746.1</ele>
        <time>2021-12-16T23:36:18Z</time>
      </trkpt>
      <trkpt lat="45.96637" lon="4.44492">
        <ele>744.4</ele>
        <time>2021-12-16T23:36:28Z</time>
      </trkpt>
      <trkpt lat="45.96617" lon="4.44437">
        <ele>739</ele>
        <time>2021-12-16T23:36:41Z</time>
      </trkpt>
      <trkpt lat="45.96585" lon="4.44394">
        <ele>732.1</ele>
        <time>2021-12-16T23:36:58Z</time>
      </trkpt>
      <trkpt lat="45.96557" lon="4.44351">
        <ele>727.4</ele>
        <time>2021-12-16T23:37:09Z</time>
      </trkpt>
      <trkpt lat="45.96537" lon="4.44312">
        <ele>726.1</ele>
        <time>2021-12-16T23:37:28Z</time>
      </trkpt>
      <trkpt lat="45.96513" lon="4.44307">
        <ele>723.7</ele>
        <time>2021-12-16T23:37:36Z</time>
      </trkpt>
      <trkpt lat="45.96444" lon="4.44387">
        <ele>710.6</ele>
        <time>2021-12-16T23:37:51Z</time>
      </trkpt>
      <trkpt lat="45.96422" lon="4.44435">
        <ele>705.1</ele>
        <time>2021-12-16T23:37:55Z</time>
      </trkpt>
      <trkpt lat="45.96404" lon="4.44461">
        <ele>701.6</ele>
        <time>2021-12-16T23:38:05Z</time>
      </trkpt>
      <trkpt lat="45.9636" lon="4.44472">
        <ele>701.4</ele>
        <time>2021-12-16T23:38:14Z</time>
      </trkpt>
      <trkpt lat="45.96322" lon="4.446">
        <ele>694.6</ele>
        <time>2021-12-16T23:38:26Z</time>
      </trkpt>
      <trkpt lat="45.96286" lon="4.44649">
        <ele>697.3</ele>
        <time>2021-12-16T23:38:38Z</time>
      </trkpt>
      <trkpt lat="45.96252" lon="4.44802">
        <ele>696.6</ele>
        <time>2021-12-16T23:38:48Z</time>
      </trkpt>
      <trkpt lat="45.96221" lon="4.44875">
        <ele>699.2</ele>
        <time>2021-12-16T23:39:02Z</time>
      </trkpt>
      <trkpt lat="45.96204" lon="4.44903">
        <ele>698.7</ele>
        <time>2021-12-16T23:39:06Z</time>
      </trkpt>
      <trkpt lat="45.96195" lon="4.44909">
        <ele>699</ele>
        <time>2021-12-16T23:39:14Z</time>
      </trkpt>
      <trkpt lat="45.96187" lon="4.44909">
        <ele>698.7</ele>
        <time>2021-12-16T23:39:25Z</time>
      </trkpt>
      <trkpt lat="45.96173" lon="4.449">
        <ele>698.7</ele>
        <time>2021-12-16T23:39:45Z</time>
      </trkpt>
      <trkpt lat="45.96137" lon="4.4483">
        <ele>695.5</ele>
        <time>2021-12-16T23:40:05Z</time>
      </trkpt>
      <trkpt lat="45.96089" lon="4.44716">
        <ele>690.8</ele>
        <time>2021-12-16T23:40:19Z</time>
      </trkpt>
      <trkpt lat="45.96061" lon="4.44681">
        <ele>684.5</ele>
        <time>2021-12-16T23:40:25Z</time>
      </trkpt>
      <trkpt lat="45.96044" lon="4.44655">
        <ele>683.4</ele>
        <time>2021-12-16T23:40:42Z</time>
      </trkpt>
      <trkpt lat="45.96033" lon="4.44633">
        <ele>683.6</ele>
        <time>2021-12-16T23:40:52Z</time>
      </trkpt>
      <trkpt lat="45.9602" lon="4.44621">
        <ele>683.9</ele>
        <time>2021-12-16T23:40:55Z</time>
      </trkpt>
      <trkpt lat="45.96009" lon="4.44625">
        <ele>683</ele>
        <time>2021-12-16T23:41:10Z</time>
      </trkpt>
      <trkpt lat="45.95997" lon="4.44641">
        <ele>678.7</ele>
        <time>2021-12-16T23:41:14Z</time>
      </trkpt>
      <trkpt lat="45.95985" lon="4.44653">
        <ele>677</ele>
        <time>2021-12-16T23:41:30Z</time>
      </trkpt>
      <trkpt lat="45.95973" lon="4.4466">
        <ele>676.6</ele>
        <time>2021-12-16T23:41:36Z</time>
      </trkpt>
      <trkpt lat="45.9593" lon="4.44675">
        <ele>674.2</ele>
        <time>2021-12-16T23:41:53Z</time>
      </trkpt>
      <trkpt lat="45.95894" lon="4.44705">
        <ele>669.1</ele>
        <time>2021-12-16T23:42:01Z</time>
      </trkpt>
      <trkpt lat="45.95874" lon="4.44707">
        <ele>667.3</ele>
        <time>2021-12-16T23:42:11Z</time>
      </trkpt>
      <trkpt lat="45.9585" lon="4.44691">
        <ele>668</ele>
        <time>2021-12-16T23:42:15Z</time>
      </trkpt>
      <trkpt lat="45.95843" lon="4.44687">
        <ele>668.1</ele>
        <time>2021-12-16T23:42:29Z</time>
      </trkpt>
      <trkpt lat="45.95817" lon="4.44699">
        <ele>665.3</ele>
        <time>2021-12-16T23:42:34Z</time>
      </trkpt>
      <trkpt lat="45.9579" lon="4.44714">
        <ele>662.6</ele>
        <time>2021-12-16T23:42:40Z</time>
      </trkpt>
      <trkpt lat="45.9577" lon="4.4473">
        <ele>660.8</ele>
        <time>2021-12-16T23:42:54Z</time>
      </trkpt>
      <trkpt lat="45.9576" lon="4.4475">
        <ele>659.4</ele>
        <time>2021-12-16T23:43:12Z</time>
      </trkpt>
      <trkpt lat="45.95756" lon="4.44769">
        <ele>658.5</ele>
        <time>2021-12-16T23:43:22Z</time>
      </trkpt>
      <trkpt lat="45.95756" lon="4.448">
        <ele>656.1</ele>
        <time>2021-12-16T23:43:41Z</time>
      </trkpt>
      <trkpt lat="45.95752" lon="4.44841">
        <ele>654.4</ele>
        <time>2021-12-16T23:43:48Z</time>
      </trkpt>
      <trkpt lat="45.95741" lon="4.44872">
        <ele>655.6</ele>
        <time>2021-12-16T23:44:06Z</time>
      </trkpt>
      <trkpt lat="45.95725" lon="4.44904">
        <ele>658.3</ele>
        <time>2021-12-16T23:44:12Z</time>
      </trkpt>
      <trkpt lat="45.95705" lon="4.44936">
        <ele>659.3</ele>
        <time>2021-12-16T23:44:15Z</time>
      </trkpt>
      <trkpt lat="45.95685" lon="4.44954">
        <ele>659.4</ele>
        <time>2021-12-16T23:44:31Z</time>
      </trkpt>
      <trkpt lat="45.95665" lon="4.44969">
        <ele>658.9</ele>
        <time>2021-12-16T23:44:35Z</time>
      </trkpt>
      <trkpt lat="45.95644" lon="4.44979">
        <ele>659.7</ele>
        <time>2021-12-16T23:44:48Z</time>
      </trkpt>
      <trkpt lat="45.95595" lon="4.4501">
        <ele>657.8</ele>
        <time>2021-12-16T23:45:08Z</time>
      </trkpt>
      <trkpt lat="45.95582" lon="4.45015">
        <ele>658.4</ele>
        <time>2021-12-16T23:45:12Z</time>
      </trkpt>
      <trkpt lat="45.95564" lon="4.45017">
        <ele>658.6</ele>
        <time>2021-12-16T23:45:22Z</time>
      </trkpt>
      <trkpt lat="45.95549" lon="4.45016">
        <ele>659.1</ele>
        <time>2021-12-16T23:45:27Z</time>
      </trkpt>
      <trkpt lat="45.95501" lon="4.45001">
        <ele>660</ele>
        <time>2021-12-16T23:45:33Z</time>
      </trkpt>
      <trkpt lat="45.95492" lon="4.44994">
        <ele>660</ele>
        <time>2021-12-16T23:45:36Z</time>
      </trkpt>
      <trkpt lat="45.95482" lon="4.44983">
        <ele>659.7</ele>
        <time>2021-12-16T23:45:43Z</time>
      </trkpt>
      <trkpt lat="45.95472" lon="4.44963">
        <ele>659.3</ele>
        <time>2021-12-16T23:45:46Z</time>
      </trkpt>
      <trkpt lat="45.95464" lon="4.44926">
        <ele>658.5</ele>
        <time>2021-12-16T23:46:00Z</time>
      </trkpt>
      <trkpt lat="45.95466" lon="4.44604">
        <ele>653.6</ele>
        <time>2021-12-16T23:46:04Z</time>
      </trkpt>
      <trkpt lat="45.95464" lon="4.44582">
        <ele>653.3</ele>
        <time>2021-12-16T23:46:10Z</time>
      </trkpt>
      <trkpt lat="45.95454" lon="4.44562">
        <ele>652</ele>
        <time>2021-12-16T23:46:24Z</time>
      </trkpt>
      <trkpt lat="45.95384" lon="4.44518">
        <ele>649.2</ele>
        <time>2021-12-16T23:46:32Z</time>
      </trkpt>
      <trkpt lat="45.9539" lon="4.44509">
        <ele>649.5</ele>
        <time>2021-12-16T23:46:52Z</time>
      </trkpt>
      <trkpt lat="45.95408" lon="4.44484">
        <ele>652</ele>
        <time>2021-12-16T23:47:04Z</time>
      </trkpt>
      <trkpt lat="45.95434" lon="4.44422">
        <ele>656.7</ele>
        <time>2021-12-16T23:47:06Z</time>
      </trkpt>
      <trkpt lat="45.95441" lon="4.44386">
        <ele>658.1</ele>
        <time>2021-12-16T23:47:19Z</time>
      </trkpt>
      <trkpt lat="45.95445" lon="4.44316">
        <ele>660.3</ele>
        <time>2021-12-16T23:47:21Z</time>
      </trkpt>
      <trkpt lat="45.95449" lon="4.44288">
        <ele>661.4</ele>
        <time>2021-12-16T23:47:39Z</time>
      </trkpt>
      <trkpt lat="45.95454" lon="4.44264">
        <ele>661.9</ele>
        <time>2021-12-16T23:47:46Z</time>
      </trkpt>
      <trkpt lat="45.95459" lon="4.44249">
        <ele>662.5</ele>
        <time>2021-12-16T23:48:00Z</time>
      </trkpt>
      <trkpt lat="45.95472" lon="4.44222">
        <ele>663.9</ele>
        <time>2021-12-16T23:48:06Z</time>
      </trkpt>
      <trkpt lat="45.95482" lon="4.4421">
        <ele>664.7</ele>
        <time>2021-12-16T23:48:26Z</time>
      </trkpt>
      <trkpt lat="45.95495" lon="4.44199">
        <ele>665.7</ele>
        <time>2021-12-16T23:48:30Z</time>
      </trkpt>
      <trkpt lat="45.95527" lon="4.44176">
        <ele>668.2</ele>
        <time>2021-12-16T23:48:34Z</time>
      </trkpt>
      <trkpt lat="45.95547" lon="4.44156">
        <ele>670</ele>
        <time>2021-12-16T23:48:39Z</time>
      </trkpt>
      <trkpt lat="45.95573" lon="4.44117">
        <ele>671.4</ele>
        <time>2021-12-16T23:48:44Z</time>
      </trkpt>
      <trkpt lat="45.9559" lon="4.44088">
        <ele>674.3</ele>
        <time>2021-12-16T23:48:49Z</time>
      </trkpt>
      <trkpt lat="45.95599" lon="4.44065">
        <ele>674.8</ele>
        <time>2021-12-16T23:49:07Z</time>
      </trkpt>
      <trkpt lat="45.95613" lon="4.44008">
        <ele>676.7</ele>
        <time>2021-12-16T23:49:21Z</time>
      </trkpt>
      <trkpt lat="45.95626" lon="4.43915">
        <ele>679.4</ele>
        <time>2021-12-16T23:49:33Z</time>
      </trkpt>
      <trkpt lat="45.95631" lon="4.43892">
        <ele>680.8</ele>
        <time>2021-12-16T23:49:51Z</time>
      </trkpt>
      <trkpt lat="45.95643" lon="4.43856">
        <ele>682.5</ele>
        <time>2021-12-16T23:49:53Z</time>
      </trkpt>
      <trkpt lat="45.95651" lon="4.43845">
        <ele>682.7</ele>
        <time>2021-12-16T23:50:00Z</time>
      </trkpt>
      <trkpt lat="45.95672" lon="4.43824">
        <ele>684.4</ele>
        <time>2021-12-16T23:50:16Z</time>
      </trkpt>
      <trkpt lat="45.95689" lon="4.43816">
        <ele>685.5</ele>
        <time>2021-12-16T23:50:29Z</time>
      </trkpt>
      <trkpt lat="45.957" lon="4.43815">
        <ele>686.2</ele>
        <time>2021-12-16T23:50:49Z</time>
      </trkpt>
      <trkpt lat="45.95715" lon="4.43815">
        <ele>687.4</ele>
        <time>2021-12-16T23:50:53Z</time>
      </trkpt>
      <trkpt lat="45.95737" lon="4.4382">
        <ele>688.6</ele>
        <time>2021-12-16T23:51:07Z</time>
      </trkpt>
      <trkpt lat="45.95771" lon="4.43835">
        <ele>690.8</ele>
        <time>2021-12-16T23:51:19Z</time>
      </trkpt>
      <trkpt lat="45.95815" lon="4.43863">
        <ele>695.1</ele>
        <time>2021-12-16T23:51:38Z</time>
      </trkpt>
      <trkpt lat="45.95835" lon="4.43865">
        <ele>695.2</ele>
        <time>2021-12-16T23:51:47Z</time>
      </trkpt>
      <trkpt lat="45.95844" lon="4.43863">
        <ele>695.9</ele>
        <time>2021-12-16T23:51:59Z</time>
      </trkpt>
      <trkpt lat="45.95858" lon="4.43852">
        <ele>696.1</ele>
        <time>2021-12-16T23:52:01Z</time>
      </trkpt>
      <trkpt lat="45.95763" lon="4.43754">
        <ele>669.9</ele>
        <time>2021-12-16T23:52:05Z</time>
      </trkpt>
      <trkpt lat="45.95687" lon="4.43642">
        <ele>652.2</ele>
        <time>2021-12-16T23:52:24Z</time>
      </trkpt>
      <trkpt lat="45.95589" lon="4.43591">
        <ele>630.4</ele>
        <time>2021-12-16T23:52:29Z</time>
      </trkpt>
      <trkpt lat="45.95492" lon="4.43569">
        <ele>613</ele>
        <time>2021-12-16T23:52:49Z</time>
      </trkpt>
      <trkpt lat="45.95399" lon="4.43443">
        <ele>597</ele>
        <time>2021-12-16T23:53:00Z</time>
      </trkpt>
      <trkpt lat="45.95389" lon="4.43428">
        <ele>595.6</ele>
        <time>2021-12-16T23:53:10Z</time>
      </trkpt>
      <trkpt lat="45.95274" lon="4.43473">
        <ele>568</ele>
        <time>2021-12-16T23:53:30Z</time>
      </trkpt>
      <trkpt lat="45.95247" lon="4.43432">
        <ele>556.8</ele>
        <time>2021-12-16T23:53:46Z</time>
      </trkpt>
      <trkpt lat="45.95212" lon="4.43447">
        <ele>550</ele>
        <time>2021-12-16T23:53:50Z</time>
      </trkpt>
      <trkpt lat="45.95191" lon="4.43445">
        <ele>545.4</ele>
        <time>2021-12-16T23:53:59Z</time>
      </trkpt>
      <trkpt lat="45.95164" lon="4.43464">
        <ele>541</ele>
        <time>2021-12-16T23:54:18Z</time>
      </trkpt>
      <trkpt lat="45.95163" lon="4.43465">
        <ele>540.9</ele>
        <time>2021-12-16T23:54:37Z</time>
      </trkpt>
      <trkpt lat="45.95123" lon="4.43459">
        <ele>535.1</ele>
        <time>2021-12-16T23:54:50Z</time>
      </trkpt>
      <trkpt lat="45.95103" lon="4.43457">
        <ele>533.4</ele>
        <time>2021-12-16T23:54:55Z</time>
      </trkpt>
      <trkpt lat="45.95096" lon="4.43452">
        <ele>532.9</ele>
        <time>2021-12-16T23:55:03Z</time>
      </trkpt>
      <trkpt lat="45.95066" lon="4.43428">
        <ele>531.2</ele>
        <time>2021-12-16T23:55:11Z</time>
      </trkpt>
      <trkpt lat="45.94976" lon="4.43388">
        <ele>534.7</ele>
        <time>2021-12-16T23:55:21Z</time>
      </trkpt>
      <trkpt lat="45.94943" lon="4.43379">
        <ele>534.9</ele>
        <time>2021-12-16T23:55:24Z</time>
      </trkpt>
      <trkpt lat="45.94925" lon="4.43369">
        <ele>533.8</ele>
        <time>2021-12-16T23:55:42Z</time>
      </trkpt>
      <trkpt lat="45.9488" lon="4.43332">
        <ele>527.5</ele>
        <time>2021-12-16T23:55:48Z</time>
      </trkpt>
      <trkpt lat="45.94784" lon="4.43268">
        <ele>516.1</ele>
        <time>2021-12-16T23:56:08Z</time>
      </trkpt>
      <trkpt lat="45.94746" lon="4.43237">
        <ele>511.9</ele>
        <time>2021-12-16T23:56:24Z</time>
      </trkpt>
      <trkpt lat="45.94726" lon="4.43217">
        <ele>508.3</ele>
        <time>2021-12-16T23:56:38Z</time>
      </trkpt>
      <trkpt lat="45.94722" lon="4.43208">
        <ele>506.8</ele>
        <time>2021-12-16T23:56:48Z</time>
      </trkpt>
      <trkpt lat="45.94694" lon="4.43098">
        <ele>487.1</ele>
        <time>2021-12-16T23:57:05Z</time>
      </trkpt>
      <trkpt lat="45.94697" lon="4.43066">
        <ele>483.2</ele>
        <time>2021-12-16T23:57:15Z</time>
      </trkpt>
      <trkpt lat="45.94697" lon="4.43027">
        <ele>477</ele>
        <time>2021-12-16T23:57:34Z</time>
      </trkpt>
      <trkpt lat="45.94696" lon="4.43035">
        <ele>478.4</ele>
        <time>2021-12-16T23:57:46Z</time>
      </trkpt>
      <trkpt lat="45.94676" lon="4.43053">
        <ele>478.9</ele>
        <time>2021-12-16T23:58:04Z</time>
      </trkpt>
      <trkpt lat="45.94669" lon="4.43051">
        <ele>477.9</ele>
        <time>2021-12-16T23:58:17Z</time>
      </trkpt>
      <trkpt lat="45.94667" lon="4.43053">
        <ele>477.7</ele>
        <time>2021-12-16T23:58:22Z</time>
      </trkpt>
      <trkpt lat="45.94666" lon="4.4305">
        <ele>477.2</ele>
        <time>2021-12-16T23:58:39Z</time>
      </trkpt>
      <trkpt lat="45.94655" lon="4.43063">
        <ele>477.1</ele>
        <time>2021-12-16T23:58:45Z</time>
      </trkpt>
      <trkpt lat="45.94648" lon="4.43083">
        <ele>478.6</ele>
        <time>2021-12-16T23:59:03Z</time>
      </trkpt>
    </trkseg>
  </trk>
</gpx>